Home > Time Zones > World Clock > Weather > Norway > Ski > Past weeks

Flag for Norway Weather past 2 weeks in Ski, Norway

Now
63 °F

Partly sunny.


Feels Like: 63 °F
Forecast: 58 / 72 °F
Wind: 23 mph from South

Location: Oslo / Fornebu

Current Time: Jul 29, 2014 at 3:24:11 PM

Latest Report: Jul 29, 2014 at 2:50 PM


Visibility: N/A

Pressure: 29.80 "Hg

Humidity: 83%

Dew point: 57 °F

Location of SkiLocation

Historic Weather in Ski — Graph

°F

Ski temperature yesterday

Maximum temperature yesterday: 68 °F (at 4:50 PM)
Minimum temperature yesterday: 59 °F (at 5:20 AM)
Average temperature yesterday: 62 °F

Past Weeks' High & Low Weather Summary

 TemperatureHumidityPressure
High75 °F (Jul 20, 2:20 PM)100% (Jul 15, 9:50 PM)30.39 "Hg (Jul 15, 9:50 PM)
Low54 °F (Jul 18, 7:20 AM)47% (Jul 21, 12:20 AM)29.65 "Hg (Jul 15, 9:20 AM)
Average62 °F87%30.06 "Hg
* Reported Jul 14 1:20 PM — Jul 29 1:50 PM, Ski, Weather by CustomWeather, © 2014

Note: Actual official high and low records may vary slightly from our data, if they occured in-between our weather recording intervals... More about our weather records

Advertising

Ski weather history for previous 24 hours

 ConditionsComfort  
Time TempWeatherWind HumidityBarometerVisibility
1:50 PM
Jul 29
63 °FPartly sunny.18 mph83%29.80 "HgN/A
1:20 PM63 °FBroken clouds.18 mph83%29.80 "HgN/A
12:50 PM63 °FMostly cloudy.16 mph83%29.83 "HgN/A
12:20 PM61 °FOvercast.15 mph83%29.83 "HgN/A
11:50 AM61 °FPartly sunny.12 mph83%29.83 "HgN/A
11:20 AM59 °FScattered clouds.10 mph88%29.83 "HgN/A
10:50 AM59 °FOvercast.15 mph88%29.83 "HgN/A
10:20 AM59 °FOvercast.14 mph88%29.86 "HgN/A
9:50 AM59 °FOvercast.12 mph88%29.86 "HgN/A
9:20 AM57 °FPartly sunny.15 mph94%29.86 "HgN/A
8:50 AM57 °FPartly sunny.16 mph94%29.86 "HgN/A
8:20 AM59 °FSprinkles. Partly sunny.16 mph94%29.86 "HgN/A
7:50 AM59 °FOvercast.14 mph94%29.86 "HgN/A
7:20 AM59 °FOvercast.15 mph94%29.86 "HgN/A
6:50 AM59 °FOvercast.15 mph94%29.86 "HgN/A
6:20 AM59 °FLow clouds.14 mph94%29.89 "HgN/A
5:50 AM59 °FLow clouds.16 mph94%29.89 "HgN/A
5:20 AM59 °FLow clouds.15 mph94%29.89 "HgN/A
4:50 AM59 °FLow clouds.14 mph94%29.89 "HgN/A
4:20 AM59 °FLow clouds.14 mph94%29.89 "HgN/A
3:50 AM59 °FLow clouds.13 mph100%29.92 "HgN/A
3:20 AM59 °FLow clouds.10 mph94%29.92 "HgN/A
2:50 AM59 °FLow clouds.13 mph94%29.92 "HgN/A
2:20 AM59 °FLow clouds.10 mph94%29.92 "HgN/A
1:50 AM61 °FLow clouds.10 mph94%29.95 "HgN/A
1:20 AM61 °FLow clouds.7 mph88%29.95 "HgN/A
12:50 AM61 °FOvercast.10 mph88%29.95 "HgN/A
12:20 AM61 °FOvercast.7 mph83%29.95 "HgN/A
11:50 PM
Jul 28
61 °FOvercast.6 mph83%29.95 "HgN/A
11:20 PM61 °FOvercast.6 mph83%29.95 "HgN/A
10:50 PM61 °FOvercast.7 mph88%29.95 "HgN/A
10:20 PM61 °FOvercast.7 mph88%29.98 "HgN/A
9:50 PM61 °FOvercast.10 mph88%29.95 "HgN/A
9:20 PM63 °FOvercast.9 mph83%29.95 "HgN/A
8:50 PM63 °FOvercast.9 mph83%29.95 "HgN/A
8:20 PM63 °FOvercast.9 mph88%29.98 "HgN/A
7:50 PM63 °FOvercast.8 mph88%29.98 "HgN/A
7:20 PM63 °FOvercast.7 mph88%29.98 "HgN/A
6:50 PM64 °FOvercast.5 mph83%29.98 "HgN/A
6:20 PM64 °FOvercast.3 mph88%29.98 "HgN/A
5:50 PM64 °FOvercast.2 mph83%29.98 "HgN/A
5:20 PM64 °FOvercast.3 mph83%29.98 "HgN/A
4:50 PM68 °FPartly sunny.No wind78%29.98 "HgN/A
4:20 PM64 °FPartly sunny.2 mph88%29.98 "HgN/A
3:50 PM64 °FPartly sunny.2 mph88%29.98 "HgN/A
3:20 PM64 °FPartly sunny.3 mph88%29.98 "HgN/A
Weather by CustomWeather, © 2014

See weather overviewHow to use our weather pages